This is the latest recevied weather packets stored in our database for station/object EA1AHA-13. If no packets are shown the sender has not sent any weather packets the latest 10 day(s).
| Time | Temp. | Humidity | Pressure | Rain* | Wind** | Luminosity | Snow |
|---|---|---|---|---|---|---|---|
| 1777754766 | 13.89° C | 95% | 1012.7 hPa | 0 mm | - | - | - |
| 1777754189 | 13.89° C | 94% | 1012.7 hPa | 0 mm | - | - | - |
| 1777753613 | 13.89° C | 94% | 1012.7 hPa | 0 mm | - | - | - |
| 1777752989 | 13.89° C | 94% | 1012.8 hPa | 0 mm | - | - | - |
| 1777752366 | 13.89° C | 94% | 1012.8 hPa | 0 mm | - | - | - |
| 1777751790 | 13.33° C | 93% | 1012.6 hPa | 0 mm | - | - | - |
| 1777751165 | 13.33° C | 93% | 1012.8 hPa | 0 mm | - | - | - |
| 1777750589 | 13.33° C | 93% | 1012.9 hPa | 0 mm | - | - | - |
| 1777749965 | 13.33° C | 93% | 1012.8 hPa | 0.25 mm | - | - | - |
| 1777749389 | 13.89° C | 94% | 1012.9 hPa | 0.76 mm | - | - | - |
| 1777748766 | 13.89° C | 94% | 1013 hPa | 1.02 mm | - | - | - |
| 1777748189 | 13.89° C | 95% | 1012.9 hPa | 1.02 mm | - | - | - |
| 1777747566 | 13.89° C | 95% | 1013 hPa | 1.02 mm | - | - | - |
| 1777746989 | 14.44° C | 95% | 1012.6 hPa | 1.02 mm | - | - | - |
| 1777746366 | 13.89° C | 95% | 1012.5 hPa | 0.76 mm | - | - | - |
| 1777745789 | 13.89° C | 95% | 1012.8 hPa | 0.25 mm | - | - | - |
| 1777745165 | 14.44° C | 94% | 1012.6 hPa | 0 mm | - | - | - |
| 1777744589 | 14.44° C | 94% | 1012.7 hPa | 0 mm | - | - | - |
| 1777743965 | 14.44° C | 94% | 1012.8 hPa | 0 mm | - | - | - |
| 1777743390 | 14.44° C | 94% | 1012.9 hPa | 0 mm | - | - | - |
| 1777742765 | 14.44° C | 93% | 1013.1 hPa | 0 mm | - | - | - |
| 1777742190 | 15° C | 93% | 1012.9 hPa | 0 mm | - | - | - |
| 1777741566 | 15° C | 93% | 1012.8 hPa | 0 mm | - | - | - |
| 1777740989 | 14.44° C | 94% | 1012.9 hPa | 0 mm | - | - | - |
| 1777740413 | 14.44° C | 95% | 1013.1 hPa | 0 mm | - | - | - |
* Rain latest hour (hover to see other rain measurements)
** Current wind speed in m/s (hover to see current wind gust speed)